Time,TemperatureF,DewpointF,PressureIn,WindDirection,WindDirectionDegrees,WindSpeedMPH,WindSpeedGustMPH,Humidity,HourlyPrecipIn,Conditions,Clouds,dailyrainin,SoftwareType,DateUTC
2013-03-26 00:03:00,73.0,-99.9,30.03,NW,325,4.0,6.0,-999,-99.99,,,-99.99,,2013-03-26 10:03:00,
2013-03-26 00:12:00,74.0,-99.9,30.03,WNW,303,3.0,6.0,-999,-99.99,,,-99.99,,2013-03-26 10:12:00,
2013-03-26 00:23:00,74.0,-99.9,30.03,WSW,250,3.0,4.0,-999,-99.99,,,-99.99,,2013-03-26 10:23:00,
2013-03-26 00:33:00,73.0,-99.9,30.02,NW,321,2.0,6.0,-999,-99.99,,,-99.99,,2013-03-26 10:33:00,
2013-03-26 00:43:00,73.0,-99.9,30.02,WSW,244,1.0,2.0,-999,-99.99,,,-99.99,,2013-03-26 10:43:00,
2013-03-26 00:53:00,73.0,-99.9,30.01,South,181,0.0,2.0,-999,-99.99,,,-99.99,,2013-03-26 10:53:00,
2013-03-26 01:03:00,73.0,-99.9,30.01,ESE,103,-999.0,2.0,-999,-99.99,,,-99.99,,2013-03-26 11:03:00,
2013-03-26 01:12:00,73.0,-99.9,30.01,NNW,345,2.0,2.0,-999,-99.99,,,-99.99,,2013-03-26 11:12:00,
2013-03-26 01:23:00,73.0,-99.9,30.01,NNW,335,2.0,3.0,-999,-99.99,,,-99.99,,2013-03-26 11:23:00,
2013-03-26 01:33:00,72.0,-99.9,30.01,NW,318,1.0,2.0,-999,-99.99,,,-99.99,,2013-03-26 11:33:00,
2013-03-26 01:43:00,73.0,-99.9,30.01,West,281,1.0,2.0,-999,-99.99,,,-99.99,,2013-03-26 11:43:00,
2013-03-26 01:52:00,73.0,-99.9,30.00,West,265,0.0,1.0,-999,-99.99,,,-99.99,,2013-03-26 11:52:00,
2013-03-26 02:03:00,73.0,-99.9,30.00,West,265,0.0,1.0,-999,-99.99,,,-99.99,,2013-03-26 12:03:00,
2013-03-26 02:12:00,72.0,-99.9,29.99,North,-999,-999.0,-999.0,-999,-99.99,,,-99.99,,2013-03-26 12:12:00,
2013-03-26 02:22:00,72.0,-99.9,29.99,ESE,109,1.0,2.0,-999,-99.99,,,-99.99,,2013-03-26 12:22:00,
2013-03-26 02:32:00,72.0,-99.9,29.99,North,351,3.0,4.0,-999,-99.99,,,-99.99,,2013-03-26 12:32:00,
2013-03-26 02:43:00,73.0,-99.9,29.98,NNE,21,2.0,4.0,-999,-99.99,,,-99.99,,2013-03-26 12:43:00,
2013-03-26 02:52:00,73.0,-99.9,29.98,ENE,60,0.0,3.0,-999,-99.99,,,-99.99,,2013-03-26 12:52:00,
2013-03-26 03:03:00,72.0,-99.9,29.98,North,-999,-999.0,-999.0,-999,-99.99,,,-99.99,,2013-03-26 13:03:00,
2013-03-26 03:12:00,72.0,-99.9,29.98,ENE,63,-999.0,1.0,-999,-99.99,,,-99.99,,2013-03-26 13:12:00,
2013-03-26 03:23:00,72.0,-99.9,29.98,North,-999,-999.0,-999.0,-999,-99.99,,,-99.99,,2013-03-26 13:23:00,
2013-03-26 03:32:00,72.0,-99.9,29.98,NW,326,1.0,1.0,-999,-99.99,,,-99.99,,2013-03-26 13:32:00,
2013-03-26 03:42:00,71.0,-99.9,29.97,North,358,1.0,2.0,-999,-99.99,,,-99.99,,2013-03-26 13:42:00,
2013-03-26 03:52:00,71.0,-99.9,29.97,NNE,19,-999.0,1.0,-999,-99.99,,,-99.99,,2013-03-26 13:52:00,
2013-03-26 04:02:00,71.0,-99.9,29.97,SE,125,-999.0,1.0,-999,-99.99,,,-99.99,,2013-03-26 14:02:00,
2013-03-26 04:12:00,70.0,-99.9,29.97,ESE,120,2.0,2.0,-999,-99.99,,,-99.99,,2013-03-26 14:12:00,
2013-03-26 04:23:00,70.0,-99.9,29.97,ESE,107,-999.0,1.0,-999,-99.99,,,-99.99,,2013-03-26 14:23:00,
2013-03-26 04:33:00,70.0,-99.9,29.97,ESE,107,-999.0,1.0,-999,-99.99,,,-99.99,,2013-03-26 14:33:00,
2013-03-26 04:42:00,70.0,-99.9,29.96,ESE,107,0.0,1.0,-999,-99.99,,,-99.99,,2013-03-26 14:42:00,
2013-03-26 04:53:00,70.0,-99.9,29.97,ESE,107,-999.0,1.0,-999,-99.99,,,-99.99,,2013-03-26 14:53:00,
2013-03-26 05:02:00,70.0,-99.9,29.98,ESE,110,-999.0,1.0,-999,-99.99,,,-99.99,,2013-03-26 15:02:00,
2013-03-26 05:12:00,70.0,-99.9,29.98,North,-999,-999.0,-999.0,-999,-99.99,,,-99.99,,2013-03-26 15:12:00,
2013-03-26 05:22:00,70.0,-99.9,29.98,NNE,20,2.0,5.0,-999,-99.99,,,-99.99,,2013-03-26 15:22:00,
2013-03-26 05:33:00,71.0,-99.9,29.99,NNE,20,2.0,5.0,-999,-99.99,,,-99.99,,2013-03-26 15:33:00,
2013-03-26 05:43:00,72.0,-99.9,29.99,North,-999,1.0,4.0,-999,-99.99,,,-99.99,,2013-03-26 15:43:00,
2013-03-26 05:53:00,72.0,-99.9,29.99,NE,41,2.0,3.0,-999,-99.99,,,-99.99,,2013-03-26 15:53:00,
2013-03-26 06:03:00,71.0,-99.9,30.00,East,80,0.0,2.0,-999,-99.99,,,-99.99,,2013-03-26 16:03:00,
2013-03-26 06:13:00,70.0,-99.9,30.00,ESE,104,1.0,2.0,-999,-99.99,,,-99.99,,2013-03-26 16:13:00,
2013-03-26 06:23:00,70.0,-99.9,30.00,NE,55,2.0,3.0,-999,-99.99,,,-99.99,,2013-03-26 16:23:00,
2013-03-26 06:33:00,70.0,-99.9,30.01,ENE,62,1.0,1.0,-999,-99.99,,,-99.99,,2013-03-26 16:33:00,
2013-03-26 06:43:00,70.0,-99.9,30.01,ENE,61,-999.0,2.0,-999,-99.99,,,-99.99,,2013-03-26 16:43:00,
2013-03-26 06:54:00,70.0,-99.9,30.01,ENE,65,-999.0,1.0,-999,-99.99,,,-99.99,,2013-03-26 16:54:00,
2013-03-26 07:03:00,70.0,-99.9,30.01,East,83,-999.0,2.0,-999,-99.99,,,-99.99,,2013-03-26 17:03:00,
2013-03-26 07:12:00,70.0,-99.9,30.01,East,93,1.0,2.0,-999,-99.99,,,-99.99,,2013-03-26 17:12:00,
2013-03-26 07:23:00,71.0,-99.9,30.02,NE,53,1.0,2.0,-999,-99.99,,,-99.99,,2013-03-26 17:23:00,
2013-03-26 07:33:00,71.0,-99.9,30.02,ESE,121,2.0,3.0,-999,-99.99,,,-99.99,,2013-03-26 17:33:00,
2013-03-26 07:42:00,71.0,-99.9,30.03,SSE,158,-999.0,1.0,-999,-99.99,,,-99.99,,2013-03-26 17:42:00,
2013-03-26 07:53:00,72.0,-99.9,30.03,SSE,158,-999.0,0.0,-999,-99.99,,,-99.99,,2013-03-26 17:53:00,
2013-03-26 08:03:00,72.0,-99.9,30.03,North,-999,-999.0,-999.0,-999,-99.99,,,-99.99,,2013-03-26 18:03:00,
2013-03-26 08:12:00,72.0,-99.9,30.03,NW,307,1.0,2.0,-999,-99.99,,,-99.99,,2013-03-26 18:12:00,
2013-03-26 08:23:00,72.0,-99.9,30.04,SW,233,2.0,2.0,-999,-99.99,,,-99.99,,2013-03-26 18:23:00,
2013-03-26 08:34:00,72.0,-99.9,30.05,SW,224,1.0,2.0,-999,-99.99,,,-99.99,,2013-03-26 18:34:00,
2013-03-26 08:42:00,73.0,-99.9,30.05,SW,223,1.0,1.0,-999,-99.99,,,-99.99,,2013-03-26 18:42:00,
2013-03-26 08:53:00,73.0,-99.9,30.05,SW,234,2.0,2.0,-999,-99.99,,,-99.99,,2013-03-26 18:53:00,
2013-03-26 09:03:00,73.0,-99.9,30.06,SW,225,2.0,3.0,-999,-99.99,,,-99.99,,2013-03-26 19:03:00,
2013-03-26 09:12:00,73.0,-99.9,30.06,SW,233,4.0,4.0,-999,-99.99,,,-99.99,,2013-03-26 19:12:00,
2013-03-26 09:23:00,73.0,-99.9,30.06,SW,233,4.0,4.0,-999,-99.99,,,-99.99,,2013-03-26 19:23:00,
2013-03-26 09:33:00,73.0,-99.9,30.06,SW,233,4.0,4.0,-999,-99.99,,,-99.99,,2013-03-26 19:33:00,
2013-03-26 09:53:00,74.0,-99.9,30.06,SW,236,4.0,4.0,-999,-99.99,,,-99.99,,2013-03-26 19:53:00,
2013-03-26 10:02:00,75.0,-99.9,30.06,WSW,252,2.0,5.0,-999,-99.99,,,-99.99,,2013-03-26 20:02:00,
2013-03-26 10:13:00,75.0,-99.9,30.06,WSW,255,6.0,7.0,-999,-99.99,,,-99.99,,2013-03-26 20:13:00,
2013-03-26 10:23:00,74.0,-99.9,30.06,SW,231,7.0,8.0,-999,-99.99,,,-99.99,,2013-03-26 20:23:00,
2013-03-26 10:33:00,74.0,-99.9,30.06,WSW,256,7.0,9.0,-999,-99.99,,,-99.99,,2013-03-26 20:33:00,
2013-03-26 10:43:00,74.0,-99.9,30.06,SW,231,9.0,11.0,-999,-99.99,,,-99.99,,2013-03-26 20:43:00,
2013-03-26 10:53:00,75.0,-99.9,30.06,SW,219,7.0,11.0,-999,-99.99,,,-99.99,,2013-03-26 20:53:00,
2013-03-26 11:02:00,74.0,-99.9,30.07,SW,236,7.0,8.0,-999,-99.99,,,-99.99,,2013-03-26 21:02:00,
2013-03-26 11:13:00,74.0,-99.9,30.06,SW,236,7.0,8.0,-999,-99.99,,,-99.99,,2013-03-26 21:13:00,
2013-03-26 11:23:00,74.0,-99.9,30.06,WSW,240,6.0,8.0,-999,-99.99,,,-99.99,,2013-03-26 21:23:00,
2013-03-26 11:33:00,75.0,-99.9,30.06,SW,232,5.0,6.0,-999,-99.99,,,-99.99,,2013-03-26 21:33:00,
2013-03-26 11:43:00,75.0,-99.9,30.06,WSW,238,6.0,7.0,-999,-99.99,,,-99.99,,2013-03-26 21:43:00,
2013-03-26 11:53:00,76.0,-99.9,30.05,SW,230,4.0,5.0,-999,-99.99,,,-99.99,,2013-03-26 21:53:00,
2013-03-26 12:02:00,76.0,-99.9,30.05,SW,228,4.0,6.0,-999,-99.99,,,-99.99,,2013-03-26 22:02:00,
2013-03-26 12:12:00,76.0,-99.9,30.04,SW,228,4.0,7.0,-999,-99.99,,,-99.99,,2013-03-26 22:12:00,
2013-03-26 12:23:00,76.0,-99.9,30.04,SW,229,5.0,8.0,-999,-99.99,,,-99.99,,2013-03-26 22:23:00,
2013-03-26 12:33:00,77.0,-99.9,30.04,SW,228,6.0,8.0,-999,-99.99,,,-99.99,,2013-03-26 22:33:00,
2013-03-26 12:43:00,77.0,-99.9,30.03,WSW,256,3.0,4.0,-999,-99.99,,,-99.99,,2013-03-26 22:43:00,
2013-03-26 12:53:00,76.0,-99.9,30.03,WSW,245,6.0,6.0,-999,-99.99,,,-99.99,,2013-03-26 22:53:00,
2013-03-26 13:01:00,76.0,-99.9,30.02,WSW,241,6.0,9.0,-999,-99.99,,,-99.99,,2013-03-26 23:01:00,
2013-03-26 13:11:00,78.0,-99.9,30.01,SW,233,4.0,7.0,-999,-99.99,,,-99.99,,2013-03-26 23:11:00,
2013-03-26 13:23:00,80.0,-99.9,30.01,ENE,73,8.0,13.0,-999,-99.99,,,-99.99,,2013-03-26 23:23:00,
2013-03-26 13:33:00,81.0,-99.9,30.01,NE,54,5.0,10.0,-999,-99.99,,,-99.99,,2013-03-26 23:33:00,
2013-03-26 13:43:00,80.0,-99.9,30.00,NNW,336,4.0,9.0,-999,-99.99,,,-99.99,,2013-03-26 23:43:00,
2013-03-26 13:53:00,80.0,-99.9,30.01,NE,50,6.0,11.0,-999,-99.99,,,-99.99,,2013-03-26 23:53:00,
2013-03-26 14:02:00,81.0,-99.9,30.00,West,273,2.0,6.0,-999,-99.99,,,-99.99,,2013-03-27 00:02:00,
2013-03-26 14:12:00,80.0,-99.9,29.99,NNW,339,5.0,8.0,-999,-99.99,,,-99.99,,2013-03-27 00:12:00,
2013-03-26 14:22:00,82.0,-99.9,29.99,NNE,28,4.0,7.0,-999,-99.99,,,-99.99,,2013-03-27 00:22:00,
2013-03-26 14:33:00,78.0,-99.9,29.99,WSW,258,5.0,11.0,-999,-99.99,,,-99.99,,2013-03-27 00:33:00,
2013-03-26 14:42:00,78.0,-99.9,29.98,West,261,8.0,10.0,-999,-99.99,,,-99.99,,2013-03-27 00:42:00,
2013-03-26 14:52:00,79.0,-99.9,29.99,NNE,18,3.0,15.0,-999,-99.99,,,-99.99,,2013-03-27 00:52:00,
2013-03-26 15:02:00,78.0,-99.9,29.98,WNW,303,8.0,14.0,-999,-99.99,,,-99.99,,2013-03-27 01:02:00,
2013-03-26 15:12:00,78.0,-99.9,29.98,NW,325,8.0,12.0,-999,-99.99,,,-99.99,,2013-03-27 01:12:00,
2013-03-26 15:23:00,77.0,-99.9,29.98,NW,315,9.0,13.0,-999,-99.99,,,-99.99,,2013-03-27 01:23:00,
2013-03-26 15:33:00,77.0,-99.9,29.98,NNW,330,9.0,12.0,-999,-99.99,,,-99.99,,2013-03-27 01:33:00,
2013-03-26 15:43:00,78.0,-99.9,29.98,NNW,340,7.0,11.0,-999,-99.99,,,-99.99,,2013-03-27 01:43:00,
2013-03-26 15:53:00,77.0,-99.9,29.98,NNW,336,9.0,13.0,-999,-99.99,,,-99.99,,2013-03-27 01:53:00,
2013-03-26 16:03:00,77.0,-99.9,29.98,NNE,26,5.0,9.0,-999,-99.99,,,-99.99,,2013-03-27 02:03:00,
2013-03-26 16:12:00,77.0,-99.9,29.98,ENE,62,6.0,14.0,-999,-99.99,,,-99.99,,2013-03-27 02:12:00,
2013-03-26 16:22:00,77.0,-99.9,29.98,NNW,330,4.0,11.0,-999,-99.99,,,-99.99,,2013-03-27 02:22:00,
2013-03-26 16:32:00,77.0,-99.9,29.98,North,349,5.0,9.0,-999,-99.99,,,-99.99,,2013-03-27 02:32:00,
2013-03-26 16:43:00,77.0,-99.9,29.98,NW,323,2.0,10.0,-999,-99.99,,,-99.99,,2013-03-27 02:43:00,
2013-03-26 16:53:00,77.0,-99.9,29.98,NE,45,3.0,8.0,-999,-99.99,,,-99.99,,2013-03-27 02:53:00,
2013-03-26 17:02:00,76.0,-99.9,29.98,NNW,348,6.0,11.0,-999,-99.99,,,-99.99,,2013-03-27 03:02:00,
2013-03-26 17:12:00,76.0,-99.9,29.98,NW,326,7.0,10.0,-999,-99.99,,,-99.99,,2013-03-27 03:12:00,
2013-03-26 17:22:00,76.0,-99.9,29.98,North,351,7.0,11.0,-999,-99.99,,,-99.99,,2013-03-27 03:22:00,
2013-03-26 17:33:00,77.0,-99.9,29.98,NNE,27,5.0,9.0,-999,-99.99,,,-99.99,,2013-03-27 03:33:00,
2013-03-26 17:43:00,77.0,-99.9,29.98,ENE,74,5.0,7.0,-999,-99.99,,,-99.99,,2013-03-27 03:43:00,
2013-03-26 17:53:00,76.0,-99.9,29.98,North,357,6.0,9.0,-999,-99.99,,,-99.99,,2013-03-27 03:53:00,
2013-03-26 18:03:00,77.0,-99.9,29.99,NNE,18,3.0,10.0,-999,-99.99,,,-99.99,,2013-03-27 04:03:00,
2013-03-26 18:13:00,77.0,-99.9,29.99,ENE,70,6.0,7.0,-999,-99.99,,,-99.99,,2013-03-27 04:13:00,
2013-03-26 18:23:00,77.0,-99.9,29.99,ENE,66,3.0,5.0,-999,-99.99,,,-99.99,,2013-03-27 04:23:00,
2013-03-26 18:33:00,76.0,-99.9,29.99,WNW,288,1.0,4.0,-999,-99.99,,,-99.99,,2013-03-27 04:33:00,
2013-03-26 18:43:00,76.0,-99.9,29.99,NE,48,3.0,6.0,-999,-99.99,,,-99.99,,2013-03-27 04:43:00,
2013-03-26 18:53:00,76.0,-99.9,30.00,ENE,57,6.0,10.0,-999,-99.99,,,-99.99,,2013-03-27 04:53:00,
2013-03-26 19:03:00,75.0,-99.9,30.01,North,11,4.0,8.0,-999,-99.99,,,-99.99,,2013-03-27 05:03:00,
2013-03-26 19:13:00,75.0,-99.9,30.01,NE,35,5.0,12.0,-999,-99.99,,,-99.99,,2013-03-27 05:13:00,
2013-03-26 19:23:00,75.0,-99.9,30.01,NNE,15,2.0,6.0,-999,-99.99,,,-99.99,,2013-03-27 05:23:00,
2013-03-26 19:33:00,75.0,-99.9,30.02,NE,35,4.0,9.0,-999,-99.99,,,-99.99,,2013-03-27 05:33:00,
2013-03-26 19:42:00,75.0,-99.9,30.02,ENE,59,7.0,11.0,-999,-99.99,,,-99.99,,2013-03-27 05:42:00,
2013-03-26 19:53:00,75.0,-99.9,30.02,NE,53,2.0,8.0,-999,-99.99,,,-99.99,,2013-03-27 05:53:00,
2013-03-26 20:02:00,75.0,-99.9,30.02,North,354,4.0,7.0,-999,-99.99,,,-99.99,,2013-03-27 06:02:00,
2013-03-26 20:12:00,74.0,-99.9,30.03,NE,55,6.0,8.0,-999,-99.99,,,-99.99,,2013-03-27 06:12:00,
2013-03-26 20:23:00,74.0,-99.9,30.03,NE,53,4.0,8.0,-999,-99.99,,,-99.99,,2013-03-27 06:23:00,
2013-03-26 20:32:00,74.0,-99.9,30.03,NE,47,5.0,9.0,-999,-99.99,,,-99.99,,2013-03-27 06:32:00,
2013-03-26 20:43:00,74.0,-99.9,30.03,NE,34,4.0,9.0,-999,-99.99,,,-99.99,,2013-03-27 06:43:00,
2013-03-26 20:53:00,74.0,-99.9,30.04,NE,52,4.0,6.0,-999,-99.99,,,-99.99,,2013-03-27 06:53:00,
2013-03-26 21:02:00,74.0,-99.9,30.04,NE,50,4.0,7.0,-999,-99.99,,,-99.99,,2013-03-27 07:02:00,
2013-03-26 21:12:00,75.0,-99.9,30.04,NE,37,2.0,6.0,-999,-99.99,,,-99.99,,2013-03-27 07:12:00,
2013-03-26 21:22:00,75.0,-99.9,30.04,East,82,5.0,7.0,-999,-99.99,,,-99.99,,2013-03-27 07:22:00,
2013-03-26 21:32:00,74.0,-99.9,30.04,NNE,28,3.0,4.0,-999,-99.99,,,-99.99,,2013-03-27 07:32:00,
2013-03-26 21:43:00,74.0,-99.9,30.05,ENE,66,2.0,5.0,-999,-99.99,,,-99.99,,2013-03-27 07:43:00,
2013-03-26 21:54:00,74.0,-99.9,30.05,ENE,58,3.0,4.0,-999,-99.99,,,-99.99,,2013-03-27 07:54:00,
2013-03-26 22:03:00,74.0,-99.9,30.05,NNE,12,2.0,4.0,-999,-99.99,,,-99.99,,2013-03-27 08:03:00,
2013-03-26 22:13:00,74.0,-99.9,30.05,North,354,2.0,4.0,-999,-99.99,,,-99.99,,2013-03-27 08:13:00,
2013-03-26 22:22:00,74.0,-99.9,30.05,North,354,5.0,8.0,-999,-99.99,,,-99.99,,2013-03-27 08:22:00,
2013-03-26 22:32:00,74.0,-99.9,30.06,ENE,57,2.0,6.0,-999,-99.99,,,-99.99,,2013-03-27 08:32:00,
2013-03-26 22:43:00,74.0,-99.9,30.06,NE,34,6.0,9.0,-999,-99.99,,,-99.99,,2013-03-27 08:43:00,
2013-03-26 22:52:00,74.0,-99.9,30.05,NNE,27,2.0,7.0,-999,-99.99,,,-99.99,,2013-03-27 08:52:00,
2013-03-26 23:02:00,74.0,-99.9,30.05,NNW,347,3.0,5.0,-999,-99.99,,,-99.99,,2013-03-27 09:02:00,
2013-03-26 23:12:00,74.0,-99.9,30.05,North,356,2.0,11.0,-999,-99.99,,,-99.99,,2013-03-27 09:12:00,
2013-03-26 23:22:00,74.0,-99.9,30.05,ENE,68,4.0,7.0,-999,-99.99,,,-99.99,,2013-03-27 09:22:00,
2013-03-26 23:33:00,74.0,-99.9,30.05,ENE,58,4.0,6.0,-999,-99.99,,,-99.99,,2013-03-27 09:33:00,
2013-03-26 23:42:00,74.0,-99.9,30.04,ENE,57,3.0,5.0,-999,-99.99,,,-99.99,,2013-03-27 09:42:00,
2013-03-26 23:52:00,74.0,-99.9,30.04,ENE,69,1.0,2.0,-999,-99.99,,,-99.99,,2013-03-27 09:52:00,